Weather History for KORC - February, 2014

Change the Weather History Date:

Friday, February 21, 2014

  Actual Average (KSUX) Record (KSUX)
Temperature  
Mean Temperature 24 °F 27 °F  
Max Temperature 33 °F 37 °F 64 °F (1943)
Min Temperature 15 °F 17 °F -15 °F (1918)
Degree Days  
Heating Degree Days 41 38  
Month to date heating degree days 861  
Since 1 July heating degree days 5037  
Cooling Degree Days 0 0  
Month to date cooling degree days 0  
Year to date cooling degree days 0  
Moisture  
Dew Point 14 °F    
Average Humidity 68    
Maximum Humidity 80    
Minimum Humidity 52    
Precipitation  
Precipitation 0.00 in 0.03 in 0.62 in (2013)
Month to date precipitation 0.46  
Year to date precipitation 1.08  
Snow  
Snow 0.00 in 0.20 in 8.00 in (2013)
Month to date snowfall 5.0  
Since 1 July snowfall 24.9  
Snow Depth -    
Sea Level Pressure  
Sea Level Pressure 29.73 in    
Wind  
Wind Speed 16 mph (WNW)    
Max Wind Speed 26 mph    
Max Gust Speed 34 mph    
Visibility 10 miles    
Events      
T = Trace of Precipitation, MM = Missing Value Source: NWS Daily Summary

Daily Weather History Graph

Daily Weather History Graph

Search for Another Location

Airport or City:

Trip Planner

Search our weather history database for the weather conditions in past years. The results will help you decide how hot, cold, wet, or windy it might be!

Date:

Astronomy

Feb. 21, 2014 Rise Set
Actual Time 7:12 AM CST 6:03 PM CST
Civil Twilight 6:44 AM CST 6:32 PM CST
Nautical Twilight 6:11 AM CST 7:05 PM CST
Astronomical Twilight 5:38 AM CST 7:38 PM CST
Moon 12:07 AM CST (2/21) 10:27 AM CST (2/21)
Length of Visible Light 11h 48m
Length of Day
10h 50m
Waning Gibbous, 60% of the Moon is Illuminated
Feb 21
Waning Gibbous
Feb 22
Last Quarter
Mar 1
New
Mar 8
First Quarter
Mar 16
Full

Hourly Weather History & Observations

Time (CST) Temp. Windchill Dew Point Humidity Pressure Visibility Wind Dir Wind Speed Gust Speed Precip Events Conditions
12:15 AM 17.6 °F 1.3 °F 10.4 °F 73% 29.63 in 10.0 mi WNW 19.6 mph 34.5 mph N/A   Mostly Cloudy
12:35 AM 17.6 °F -1.0 °F 10.4 °F 73% 29.63 in 10.0 mi NW 26.5 mph 32.2 mph N/A   Scattered Clouds
12:55 AM 17.6 °F -1.0 °F 10.4 °F 73% 29.63 in 10.0 mi NW 26.5 mph 33.4 mph N/A   Clear
1:10 AM 17.6 °F 0.1 °F 10.4 °F 73% 29.63 in 10.0 mi WNW 23.0 mph 28.8 mph N/A   Clear
1:35 AM 17.6 °F -0.3 °F 10.4 °F 73% 29.63 in 10.0 mi WNW 24.2 mph 32.2 mph N/A   Clear
1:55 AM 17.6 °F -0.6 °F 10.4 °F 73% 29.64 in 10.0 mi WNW 25.3 mph 31.1 mph N/A   Clear
2:15 AM 17.6 °F 0.5 °F 10.4 °F 73% 29.64 in 10.0 mi WNW 21.9 mph 31.1 mph N/A   Clear
2:35 AM 17.6 °F 1.3 °F 10.4 °F 73% 29.64 in 10.0 mi WNW 19.6 mph - N/A   Clear
2:55 AM 15.8 °F -0.2 °F 10.4 °F 79% 29.64 in 10.0 mi WNW 17.3 mph - N/A   Clear
3:15 AM 15.8 °F -0.6 °F 10.4 °F 79% 29.64 in 10.0 mi WNW 18.4 mph 26.5 mph N/A   Clear
3:35 AM 15.8 °F 1.4 °F 8.6 °F 73% 29.65 in 10.0 mi WNW 13.8 mph - N/A   Clear
3:55 AM 15.8 °F 2.7 °F 10.4 °F 79% 29.66 in 10.0 mi WNW 11.5 mph - N/A   Clear
4:15 AM 15.8 °F -0.6 °F 8.6 °F 73% 29.66 in 10.0 mi WNW 18.4 mph - N/A   Clear
4:35 AM 15.8 °F 0.3 °F 10.4 °F 79% 29.67 in 10.0 mi WNW 16.1 mph - N/A   Clear
4:55 AM 15.8 °F -0.2 °F 8.6 °F 73% 29.68 in 10.0 mi WNW 17.3 mph - N/A   Clear
5:15 AM 15.8 °F 0.9 °F 8.6 °F 73% 29.68 in 10.0 mi WNW 15.0 mph - N/A   Clear
5:35 AM 15.8 °F -0.2 °F 8.6 °F 73% 29.68 in 10.0 mi WNW 17.3 mph 21.9 mph N/A   Clear
5:55 AM 15.8 °F 0.9 °F 8.6 °F 73% 29.68 in 10.0 mi WNW 15.0 mph - N/A   Clear
6:15 AM 15.8 °F -0.6 °F 8.6 °F 73% 29.69 in 10.0 mi WNW 18.4 mph 24.2 mph N/A   Clear
6:35 AM 15.8 °F 0.3 °F 8.6 °F 73% 29.69 in 10.0 mi WNW 16.1 mph 21.9 mph N/A   Clear
6:55 AM 15.8 °F 2.7 °F 8.6 °F 73% 29.69 in 10.0 mi WNW 11.5 mph - N/A   Clear
7:15 AM 15.8 °F 4.2 °F 8.6 °F 73% 29.70 in 10.0 mi WNW 9.2 mph - N/A   Clear
7:35 AM 15.8 °F 4.2 °F 8.6 °F 73% 29.70 in 10.0 mi West 9.2 mph - N/A   Clear
7:55 AM 15.8 °F 4.2 °F 8.6 °F 73% 29.71 in 10.0 mi West 9.2 mph - N/A   Clear
8:15 AM 17.6 °F 4.3 °F 10.4 °F 73% 29.70 in 10.0 mi West 12.7 mph - N/A   Clear
8:35 AM 19.4 °F 6.6 °F 10.4 °F 68% 29.71 in 10.0 mi WNW 12.7 mph - N/A   Clear
8:55 AM 19.4 °F 5.5 °F 10.4 °F 68% 29.70 in 10.0 mi WNW 15.0 mph - N/A   Clear
9:15 AM 21.2 °F 6.8 °F 10.4 °F 63% 29.71 in 10.0 mi WNW 17.3 mph - N/A   Clear
9:35 AM 21.2 °F 7.8 °F 10.4 °F 63% 29.71 in 10.0 mi WNW 15.0 mph - N/A   Clear
9:55 AM 23.0 °F 10.1 °F 12.2 °F 63% 29.71 in 10.0 mi West 15.0 mph - N/A   Clear
10:15 AM 24.8 °F 11.9 °F 12.2 °F 59% 29.72 in 10.0 mi West 16.1 mph - N/A   Clear
10:35 AM 24.8 °F 11.9 °F 12.2 °F 59% 29.73 in 10.0 mi West 16.1 mph 19.6 mph N/A   Clear
10:55 AM 26.6 °F 14.3 °F 14.0 °F 59% 29.73 in 10.0 mi West 16.1 mph 21.9 mph N/A   Scattered Clouds
11:15 AM 26.6 °F 14.7 °F 14.0 °F 59% 29.72 in 10.0 mi West 15.0 mph - N/A   Scattered Clouds
11:35 AM 28.4 °F 16.6 °F 14.0 °F 55% 29.72 in 10.0 mi West 16.1 mph - N/A   Clear
11:55 AM 26.6 °F 14.3 °F 14.0 °F 59% 29.72 in 10.0 mi WNW 16.1 mph - N/A   Scattered Clouds
12:15 PM 28.4 °F 16.6 °F 14.0 °F 55% 29.72 in 10.0 mi WNW 16.1 mph - N/A   Scattered Clouds
12:35 PM 28.4 °F 15.8 °F 14.0 °F 55% 29.72 in 10.0 mi WNW 18.4 mph - N/A   Scattered Clouds
12:55 PM 28.4 °F 16.6 °F 14.0 °F 55% 29.71 in 10.0 mi WNW 16.1 mph - N/A   Scattered Clouds
1:15 PM 30.2 °F 18.9 °F 17.6 °F 60% 29.71 in 10.0 mi WNW 16.1 mph - N/A   Scattered Clouds
1:35 PM 30.2 °F 18.5 °F 15.8 °F 55% 29.71 in 10.0 mi WNW 17.3 mph - N/A   Clear
1:55 PM 32.0 °F 19.8 °F 17.6 °F 55% 29.72 in 10.0 mi WNW 20.7 mph 24.2 mph N/A   Clear
2:15 PM 33.8 °F 22.8 °F 17.6 °F 52% 29.72 in 10.0 mi WNW 18.4 mph 23.0 mph N/A   Clear
2:35 PM 33.8 °F 23.5 °F 19.4 °F 56% 29.72 in 10.0 mi NW 16.1 mph 19.6 mph N/A   Clear
2:55 PM 33.8 °F 22.5 °F 19.4 °F 56% 29.72 in 10.0 mi WNW 19.6 mph 23.0 mph N/A   Clear
3:15 PM 33.8 °F 22.8 °F 19.4 °F 56% 29.73 in 10.0 mi WNW 18.4 mph 24.2 mph N/A   Clear
3:35 PM 33.8 °F 23.2 °F 19.4 °F 56% 29.74 in 10.0 mi WNW 17.3 mph - N/A   Clear
3:55 PM 33.8 °F 22.2 °F 19.4 °F 56% 29.75 in 10.0 mi WNW 20.7 mph 26.5 mph N/A   Clear
4:15 PM 33.8 °F 22.5 °F 19.4 °F 56% 29.75 in 10.0 mi WNW 19.6 mph 23.0 mph N/A   Clear
4:35 PM 33.8 °F 22.8 °F 19.4 °F 56% 29.75 in 10.0 mi WNW 18.4 mph 23.0 mph N/A   Clear
4:55 PM 33.8 °F 23.9 °F 19.4 °F 56% 29.75 in 10.0 mi NW 15.0 mph - N/A   Clear
5:15 PM 32.0 °F 23.0 °F 19.4 °F 60% 29.76 in 10.0 mi WNW 11.5 mph - N/A   Clear
5:35 PM 30.2 °F 21.9 °F 21.2 °F 69% 29.77 in 10.0 mi WNW 9.2 mph - N/A   Clear
5:55 PM 30.2 °F 21.9 °F 21.2 °F 69% 29.77 in 10.0 mi NW 9.2 mph - N/A   Mostly Cloudy
6:15 PM 28.4 °F 22.2 °F 21.2 °F 74% 29.78 in 10.0 mi NW 5.8 mph - N/A   Scattered Clouds
6:35 PM 28.4 °F 21.2 °F 19.4 °F 69% 29.79 in 10.0 mi NW 6.9 mph - N/A   Clear
6:55 PM 26.6 °F 22.6 °F 19.4 °F 74% 29.79 in 10.0 mi NNW 3.5 mph - N/A   Clear
7:15 PM 26.6 °F - 19.4 °F 74% 29.80 in 10.0 mi Calm Calm - N/A   Clear
7:35 PM 26.6 °F 20.0 °F 19.4 °F 74% 29.80 in 10.0 mi NW 5.8 mph - N/A   Clear
7:55 PM 24.8 °F 19.1 °F 19.4 °F 80% 29.80 in 10.0 mi NW 4.6 mph - N/A   Clear
8:10 PM 24.8 °F 19.1 °F 19.4 °F 80% 29.81 in 10.0 mi NW 4.6 mph - N/A   Clear
8:35 PM 26.6 °F 21.2 °F 17.6 °F 69% 29.81 in 10.0 mi NNW 4.6 mph - N/A   Clear
8:55 PM 26.6 °F 21.2 °F 17.6 °F 69% 29.82 in 10.0 mi NNW 4.6 mph - N/A   Clear
9:15 PM 24.8 °F - 15.8 °F 69% 29.82 in 10.0 mi Calm Calm - N/A   Clear
9:35 PM 26.6 °F 22.6 °F 15.8 °F 64% 29.82 in 10.0 mi NNE 3.5 mph - N/A   Clear
9:55 PM 26.6 °F 21.2 °F 15.8 °F 64% 29.82 in 10.0 mi North 4.6 mph - N/A   Clear
10:15 PM 24.8 °F - 15.8 °F 69% 29.84 in 10.0 mi Calm Calm - N/A   Clear
10:35 PM 21.2 °F - 15.8 °F 80% 29.84 in 10.0 mi Calm Calm - N/A   Clear
10:55 PM 21.2 °F 16.4 °F 15.8 °F 80% 29.85 in 10.0 mi WSW 3.5 mph - N/A   Clear
11:15 PM 21.2 °F - 15.8 °F 80% 29.84 in 10.0 mi Calm Calm - N/A   Clear
11:35 PM 21.2 °F 16.4 °F 15.8 °F 80% 29.86 in 10.0 mi NW 3.5 mph - N/A   Mostly Cloudy
11:55 PM 21.2 °F - 15.8 °F 80% 29.86 in 10.0 mi Calm Calm - N/A   Scattered Clouds